Time,TemperatureF,DewpointF,PressureIn,WindDirection,WindDirectionDegrees,WindSpeedMPH,WindSpeedGustMPH,Humidity,HourlyPrecipIn,Conditions,Clouds,dailyrainin,SoftwareType,DateUTC
2013-05-15 00:00:00,59.5,46.1,30.14,SW,230,1.0,4.0,61,0.00,,---,0.00,VWS V14.01,2013-05-15 04:00:00,
2013-05-15 00:01:00,59.4,45.5,30.14,SSW,213,0.0,3.0,60,0.00,,---,0.00,VWS V14.01,2013-05-15 04:01:00,
2013-05-15 00:02:00,59.4,45.5,30.14,SSW,212,2.0,3.0,60,0.00,,---,0.00,VWS V14.01,2013-05-15 04:02:00,
2013-05-15 00:04:00,59.3,45.9,30.14,West,271,0.0,3.0,61,0.00,,---,0.00,VWS V14.01,2013-05-15 04:04:00,
2013-05-15 00:07:00,59.2,45.8,30.14,WSW,250,0.0,3.0,61,0.00,,---,0.00,VWS V14.01,2013-05-15 04:07:00,
2013-05-15 00:08:00,59.2,45.8,30.14,WSW,250,0.0,3.0,61,0.00,,---,0.00,VWS V14.01,2013-05-15 04:08:00,
2013-05-15 00:13:00,59.0,45.6,30.14,SW,227,2.0,3.0,61,0.00,,---,0.00,VWS V14.01,2013-05-15 04:13:00,
2013-05-15 00:15:00,59.0,45.6,30.14,SW,225,0.0,3.0,61,0.00,,---,0.00,VWS V14.01,2013-05-15 04:15:00,
2013-05-15 00:18:00,58.9,45.9,30.14,SW,221,0.0,2.0,62,0.00,,---,0.00,VWS V14.01,2013-05-15 04:18:00,
2013-05-15 00:23:00,58.9,45.5,30.14,SW,232,2.0,3.0,61,0.00,,---,0.00,VWS V14.01,2013-05-15 04:23:00,
2013-05-15 00:28:00,58.9,45.5,30.14,SW,227,0.0,4.0,61,0.00,,---,0.00,VWS V14.01,2013-05-15 04:28:00,
2013-05-15 00:30:00,58.9,45.9,30.14,SW,215,0.0,4.0,62,0.00,,---,0.00,VWS V14.01,2013-05-15 04:30:00,
2013-05-15 00:33:00,58.9,45.9,30.13,SSW,211,0.0,2.0,62,0.00,,---,0.00,VWS V14.01,2013-05-15 04:33:00,
2013-05-15 00:38:00,59.0,45.6,30.13,SW,236,3.0,5.0,61,0.00,,---,0.00,VWS V14.01,2013-05-15 04:38:00,
2013-05-15 00:43:00,59.1,45.7,30.13,South,176,1.0,5.0,61,0.00,,---,0.00,VWS V14.01,2013-05-15 04:43:00,
2013-05-15 00:45:00,59.1,45.7,30.13,South,189,1.0,5.0,61,0.00,,---,0.00,VWS V14.01,2013-05-15 04:45:00,
2013-05-15 00:48:00,59.3,45.9,30.13,South,186,0.0,6.0,61,0.00,,---,0.00,VWS V14.01,2013-05-15 04:48:00,
2013-05-15 00:53:00,59.4,45.5,30.13,WSW,248,2.0,6.0,60,0.00,,---,0.00,VWS V14.01,2013-05-15 04:53:00,
2013-05-15 00:58:00,59.5,45.6,30.13,SSW,206,0.0,6.0,60,0.00,,---,0.00,VWS V14.01,2013-05-15 04:58:00,
2013-05-15 01:00:00,59.5,45.6,30.13,South,190,2.0,6.0,60,0.00,,---,0.00,VWS V14.01,2013-05-15 05:00:00,
2013-05-15 01:03:00,59.6,45.7,30.13,SW,220,0.0,3.0,60,0.00,,---,0.00,VWS V14.01,2013-05-15 05:03:00,
2013-05-15 01:08:00,59.7,45.4,30.13,South,184,2.0,6.0,59,0.00,,---,0.00,VWS V14.01,2013-05-15 05:08:00,
2013-05-15 01:13:00,59.7,45.4,30.12,SSW,206,0.0,6.0,59,0.00,,---,0.00,VWS V14.01,2013-05-15 05:13:00,
2013-05-15 01:15:00,59.7,45.4,30.12,South,184,2.0,6.0,59,0.00,,---,0.00,VWS V14.01,2013-05-15 05:15:00,
2013-05-15 01:19:00,59.8,45.5,30.12,SSW,210,1.0,4.0,59,0.00,,---,0.00,VWS V14.01,2013-05-15 05:19:00,
2013-05-15 01:24:00,59.7,45.4,30.12,SSW,213,1.0,4.0,59,0.00,,---,0.00,VWS V14.01,2013-05-15 05:24:00,
2013-05-15 01:29:00,59.6,45.7,30.12,SSW,207,3.0,4.0,60,0.00,,---,0.00,VWS V14.01,2013-05-15 05:29:00,
2013-05-15 01:30:00,59.6,45.7,30.12,SW,215,2.0,4.0,60,0.00,,---,0.00,VWS V14.01,2013-05-15 05:30:00,
2013-05-15 01:34:00,59.5,45.6,30.12,SSW,192,1.0,4.0,60,0.00,,---,0.00,VWS V14.01,2013-05-15 05:34:00,
2013-05-15 01:39:00,59.4,46.0,30.12,WSW,240,0.0,4.0,61,0.00,,---,0.00,VWS V14.01,2013-05-15 05:39:00,
2013-05-15 01:44:00,59.2,45.8,30.11,West,261,0.0,4.0,61,0.00,,---,0.00,VWS V14.01,2013-05-15 05:44:00,
2013-05-15 01:45:00,59.2,45.8,30.11,SSW,196,0.0,4.0,61,0.00,,---,0.00,VWS V14.01,2013-05-15 05:45:00,
2013-05-15 01:49:00,59.1,46.1,30.11,SSW,209,1.0,4.0,62,0.00,,---,0.00,VWS V14.01,2013-05-15 05:49:00,
2013-05-15 01:54:00,58.9,45.9,30.11,SSE,163,0.0,4.0,62,0.00,,---,0.00,VWS V14.01,2013-05-15 05:54:00,
2013-05-15 01:59:00,58.9,45.9,30.11,SW,214,0.0,4.0,62,0.00,,---,0.00,VWS V14.01,2013-05-15 05:59:00,
2013-05-15 02:00:00,58.9,45.9,30.11,WSW,244,4.0,4.0,62,0.00,,---,0.00,VWS V14.01,2013-05-15 06:00:00,
2013-05-15 02:04:00,58.7,46.2,30.11,SW,234,0.0,3.0,63,0.00,,---,0.00,VWS V14.01,2013-05-15 06:04:00,
2013-05-15 02:09:00,58.7,46.2,30.11,South,188,2.0,7.0,63,0.00,,---,0.00,VWS V14.01,2013-05-15 06:09:00,
2013-05-15 02:14:00,58.9,46.3,30.11,WSW,252,0.0,7.0,63,0.00,,---,0.00,VWS V14.01,2013-05-15 06:14:00,
2013-05-15 02:15:00,58.9,46.3,30.11,WSW,252,0.0,7.0,63,0.00,,---,0.00,VWS V14.01,2013-05-15 06:15:00,
2013-05-15 02:19:00,59.0,46.4,30.11,SW,231,2.0,7.0,63,0.00,,---,0.00,VWS V14.01,2013-05-15 06:19:00,
2013-05-15 02:24:00,59.2,46.6,30.11,South,180,1.0,7.0,63,0.00,,---,0.00,VWS V14.01,2013-05-15 06:24:00,
2013-05-15 02:29:00,59.3,46.7,30.11,SW,217,2.0,7.0,63,0.00,,---,0.00,VWS V14.01,2013-05-15 06:29:00,
2013-05-15 02:30:00,59.3,46.7,30.11,South,189,5.0,7.0,63,0.00,,---,0.00,VWS V14.01,2013-05-15 06:30:00,
2013-05-15 02:34:00,59.4,46.8,30.11,SSW,206,0.0,5.0,63,0.00,,---,0.00,VWS V14.01,2013-05-15 06:34:00,
2013-05-15 02:39:00,59.5,46.9,30.11,SSW,212,4.0,7.0,63,0.00,,---,0.00,VWS V14.01,2013-05-15 06:39:00,
2013-05-15 02:45:00,59.6,47.0,30.10,SW,234,1.0,7.0,63,0.00,,---,0.00,VWS V14.01,2013-05-15 06:45:00,
2013-05-15 02:50:00,59.7,47.1,30.10,SW,215,1.0,5.0,63,0.00,,---,0.00,VWS V14.01,2013-05-15 06:50:00,
2013-05-15 02:55:00,59.7,47.1,30.10,South,188,3.0,6.0,63,0.00,,---,0.00,VWS V14.01,2013-05-15 06:55:00,
2013-05-15 03:00:00,59.8,47.2,30.11,West,265,2.0,6.0,63,0.00,,---,0.00,VWS V14.01,2013-05-15 07:00:00,
2013-05-15 03:05:00,59.8,47.2,30.11,West,273,1.0,6.0,63,0.00,,---,0.00,VWS V14.01,2013-05-15 07:05:00,
2013-05-15 03:10:00,59.7,47.5,30.11,SW,214,1.0,6.0,64,0.00,,---,0.00,VWS V14.01,2013-05-15 07:10:00,
2013-05-15 03:15:00,59.7,47.5,30.11,WSW,243,2.0,6.0,64,0.00,,---,0.00,VWS V14.01,2013-05-15 07:15:00,
2013-05-15 03:20:00,59.6,47.8,30.11,SSW,197,0.0,6.0,65,0.00,,---,0.00,VWS V14.01,2013-05-15 07:20:00,
2013-05-15 03:25:00,59.5,47.7,30.10,SW,236,1.0,6.0,65,0.00,,---,0.00,VWS V14.01,2013-05-15 07:25:00,
2013-05-15 03:30:00,59.5,47.7,30.10,SSW,192,0.0,1.0,65,0.00,,---,0.00,VWS V14.01,2013-05-15 07:30:00,
2013-05-15 03:35:00,59.3,48.0,30.10,South,176,4.0,4.0,66,0.00,,---,0.00,VWS V14.01,2013-05-15 07:35:00,
2013-05-15 03:40:00,59.2,48.3,30.10,South,188,1.0,4.0,67,0.00,,---,0.00,VWS V14.01,2013-05-15 07:40:00,
2013-05-15 03:45:00,59.1,47.8,30.10,SSW,209,1.0,2.0,66,0.00,,---,0.00,VWS V14.01,2013-05-15 07:45:00,
2013-05-15 03:50:00,59.0,48.1,30.10,WSW,246,1.0,4.0,67,0.00,,---,0.00,VWS V14.01,2013-05-15 07:50:00,
2013-05-15 03:55:00,58.9,48.0,30.10,SSW,203,0.0,4.0,67,0.00,,---,0.00,VWS V14.01,2013-05-15 07:55:00,
2013-05-15 04:00:00,58.7,48.2,30.10,South,180,3.0,4.0,68,0.00,,---,0.00,VWS V14.01,2013-05-15 08:00:00,
2013-05-15 04:06:00,58.7,48.2,30.10,SSW,210,0.0,4.0,68,0.00,,---,0.00,VWS V14.01,2013-05-15 08:06:00,
2013-05-15 04:11:00,58.7,48.2,30.11,WSW,237,2.0,5.0,68,0.00,,---,0.00,VWS V14.01,2013-05-15 08:11:00,
2013-05-15 04:15:00,58.7,48.2,30.11,SSW,201,3.0,6.0,68,0.00,,---,0.00,VWS V14.01,2013-05-15 08:15:00,
2013-05-15 04:16:00,58.7,48.2,30.11,SSW,211,0.0,4.0,68,0.00,,---,0.00,VWS V14.01,2013-05-15 08:16:00,
2013-05-15 04:21:00,58.6,48.5,30.11,SW,230,1.0,4.0,69,0.00,,---,0.00,VWS V14.01,2013-05-15 08:21:00,
2013-05-15 04:28:00,58.4,48.3,30.11,SW,218,0.0,1.0,69,0.00,,---,0.00,VWS V14.01,2013-05-15 08:28:00,
2013-05-15 04:33:00,58.3,48.6,30.11,SW,232,1.0,5.0,70,0.00,,---,0.00,VWS V14.01,2013-05-15 08:33:00,
2013-05-15 04:39:00,58.2,48.5,30.11,WSW,249,1.0,5.0,70,0.00,,---,0.00,VWS V14.01,2013-05-15 08:39:00,
2013-05-15 04:44:00,58.1,48.4,30.11,West,261,0.0,5.0,70,0.00,,---,0.00,VWS V14.01,2013-05-15 08:44:00,
2013-05-15 04:49:00,58.0,48.3,30.11,West,273,1.0,3.0,70,0.00,,---,0.00,VWS V14.01,2013-05-15 08:49:00,
2013-05-15 04:54:00,57.7,48.4,30.11,SW,236,0.0,4.0,71,0.00,,---,0.00,VWS V14.01,2013-05-15 08:54:00,
2013-05-15 04:59:00,57.6,48.7,30.11,West,262,1.0,4.0,72,0.00,,---,0.00,VWS V14.01,2013-05-15 08:59:00,
2013-05-15 05:04:00,57.4,48.5,30.11,SW,225,0.0,2.0,72,0.00,,---,0.00,VWS V14.01,2013-05-15 09:04:00,
2013-05-15 05:09:00,57.3,48.7,30.11,SW,221,0.0,2.0,73,0.00,,---,0.00,VWS V14.01,2013-05-15 09:09:00,
2013-05-15 05:14:00,57.1,48.5,30.11,SW,232,1.0,2.0,73,0.00,,---,0.00,VWS V14.01,2013-05-15 09:14:00,
2013-05-15 05:19:00,57.0,48.4,30.11,WSW,246,0.0,2.0,73,0.00,,---,0.00,VWS V14.01,2013-05-15 09:19:00,
2013-05-15 05:24:00,56.8,48.6,30.11,WSW,240,0.0,3.0,74,0.00,,---,0.00,VWS V14.01,2013-05-15 09:24:00,
2013-05-15 05:29:00,56.7,48.5,30.11,SW,230,0.0,3.0,74,0.00,,---,0.00,VWS V14.01,2013-05-15 09:29:00,
2013-05-15 05:34:00,56.5,48.3,30.11,WSW,237,0.0,3.0,74,0.00,,---,0.00,VWS V14.01,2013-05-15 09:34:00,
2013-05-15 05:39:00,56.4,48.6,30.11,WSW,243,0.0,3.0,75,0.00,,---,0.00,VWS V14.01,2013-05-15 09:39:00,
2013-05-15 05:45:00,56.3,48.5,30.11,WSW,248,0.0,3.0,75,0.00,,---,0.00,VWS V14.01,2013-05-15 09:45:00,
2013-05-15 05:50:00,56.2,48.8,30.12,SSW,200,0.0,2.0,76,0.00,,---,0.00,VWS V14.01,2013-05-15 09:50:00,
2013-05-15 05:55:00,56.1,48.7,30.12,WSW,242,0.0,2.0,76,0.00,,---,0.00,VWS V14.01,2013-05-15 09:55:00,
2013-05-15 06:00:00,56.0,48.5,30.12,SW,219,0.0,2.0,76,0.00,,---,0.00,VWS V14.01,2013-05-15 10:00:00,
2013-05-15 06:05:00,56.0,48.5,30.12,WSW,254,0.0,3.0,76,0.00,,---,0.00,VWS V14.01,2013-05-15 10:05:00,
2013-05-15 06:10:00,55.9,48.8,30.12,WSW,248,0.0,3.0,77,0.00,,---,0.00,VWS V14.01,2013-05-15 10:10:00,
2013-05-15 06:15:00,55.8,48.7,30.12,WSW,248,0.0,3.0,77,0.00,,---,0.00,VWS V14.01,2013-05-15 10:15:00,
2013-05-15 06:20:00,55.6,48.5,30.12,WSW,248,0.0,1.0,77,0.00,,---,0.00,VWS V14.01,2013-05-15 10:20:00,
2013-05-15 06:25:00,55.4,48.7,30.12,WSW,248,0.0,1.0,78,0.00,,---,0.00,VWS V14.01,2013-05-15 10:25:00,
2013-05-15 06:30:00,55.3,48.6,30.13,WSW,248,0.0,1.0,78,0.00,,---,0.00,VWS V14.01,2013-05-15 10:30:00,
2013-05-15 06:35:00,55.2,48.8,30.13,WSW,248,0.0,1.0,79,0.00,,---,0.00,VWS V14.01,2013-05-15 10:35:00,
2013-05-15 06:40:00,55.2,48.8,30.13,SW,220,0.0,2.0,79,0.00,,---,0.00,VWS V14.01,2013-05-15 10:40:00,
2013-05-15 06:45:00,55.2,49.2,30.13,SW,222,0.0,0.0,80,0.00,,---,0.00,VWS V14.01,2013-05-15 10:45:00,
2013-05-15 06:50:00,55.4,49.3,30.13,SSW,209,0.0,4.0,80,0.00,,---,0.00,VWS V14.01,2013-05-15 10:50:00,
2013-05-15 06:55:00,55.7,49.6,30.13,SSW,200,1.0,4.0,80,0.00,,---,0.00,VWS V14.01,2013-05-15 10:55:00,
2013-05-15 07:01:00,56.0,49.6,30.13,SSW,201,1.0,3.0,79,0.00,,---,0.00,VWS V14.01,2013-05-15 11:01:00,
2013-05-15 07:06:00,56.3,49.9,30.13,WSW,254,0.0,5.0,79,0.00,,---,0.00,VWS V14.01,2013-05-15 11:06:00,
2013-05-15 07:11:00,56.7,49.9,30.13,SW,225,0.0,5.0,78,0.00,,---,0.00,VWS V14.01,2013-05-15 11:11:00,
2013-05-15 07:17:00,57.2,50.4,30.13,SW,223,0.0,3.0,78,0.00,,---,0.00,VWS V14.01,2013-05-15 11:17:00,
2013-05-15 07:22:00,57.6,50.8,30.13,SSW,213,0.0,3.0,78,0.00,,---,0.00,VWS V14.01,2013-05-15 11:22:00,
2013-05-15 07:27:00,58.0,51.2,30.13,WSW,242,0.0,6.0,78,0.00,,---,0.00,VWS V14.01,2013-05-15 11:27:00,
2013-05-15 07:33:00,58.3,51.5,30.13,South,190,0.0,3.0,78,0.00,,---,0.00,VWS V14.01,2013-05-15 11:33:00,
2013-05-15 07:38:00,58.9,51.7,30.13,SSE,163,1.0,4.0,77,0.00,,---,0.00,VWS V14.01,2013-05-15 11:38:00,
2013-05-15 07:43:00,59.6,52.0,30.13,SSE,166,0.0,4.0,76,0.00,,---,0.00,VWS V14.01,2013-05-15 11:43:00,
2013-05-15 07:48:00,60.5,52.9,30.13,West,267,2.0,6.0,76,0.00,,---,0.00,VWS V14.01,2013-05-15 11:48:00,
2013-05-15 07:54:00,61.2,52.9,30.13,WSW,245,2.0,7.0,74,0.00,,---,0.00,VWS V14.01,2013-05-15 11:54:00,
2013-05-15 07:59:00,61.8,53.4,30.13,SSW,209,2.0,7.0,74,0.00,,---,0.00,VWS V14.01,2013-05-15 11:59:00,
2013-05-15 08:05:00,62.4,53.6,30.13,SW,233,1.0,5.0,73,0.00,,---,0.00,VWS V14.01,2013-05-15 12:05:00,
2013-05-15 08:10:00,62.9,53.4,30.13,WSW,257,2.0,8.0,71,0.00,,---,0.00,VWS V14.01,2013-05-15 12:10:00,
2013-05-15 08:16:00,63.2,53.7,30.13,West,261,2.0,6.0,71,0.00,,---,0.00,VWS V14.01,2013-05-15 12:16:00,
2013-05-15 08:21:00,63.7,54.5,30.13,SSW,198,0.0,6.0,72,0.00,,---,0.00,VWS V14.01,2013-05-15 12:21:00,
2013-05-15 08:28:00,64.4,54.8,30.13,NW,305,0.0,9.0,71,0.00,,---,0.00,VWS V14.01,2013-05-15 12:28:00,
2013-05-15 08:33:00,65.4,55.4,30.13,NNW,327,0.0,8.0,70,0.00,,---,0.00,VWS V14.01,2013-05-15 12:33:00,
2013-05-15 08:38:00,65.9,55.5,30.13,West,259,1.0,8.0,69,0.00,,---,0.00,VWS V14.01,2013-05-15 12:38:00,
2013-05-15 08:44:00,66.4,56.3,30.13,West,275,0.0,8.0,70,0.00,,---,0.00,VWS V14.01,2013-05-15 12:44:00,
2013-05-15 08:49:00,66.8,56.3,30.13,West,262,1.0,6.0,69,0.00,,---,0.00,VWS V14.01,2013-05-15 12:49:00,
2013-05-15 08:54:00,67.5,57.0,30.13,WNW,283,0.0,6.0,69,0.00,,---,0.00,VWS V14.01,2013-05-15 12:54:00,
2013-05-15 09:00:00,67.9,57.8,30.13,WNW,285,0.0,6.0,70,0.00,,---,0.00,VWS V14.01,2013-05-15 13:00:00,
2013-05-15 09:05:00,68.8,57.4,30.13,WNW,285,1.0,7.0,67,0.00,,---,0.00,VWS V14.01,2013-05-15 13:05:00,
2013-05-15 09:10:00,68.9,57.5,30.13,NW,320,2.0,7.0,67,0.00,,---,0.00,VWS V14.01,2013-05-15 13:10:00,
2013-05-15 09:16:00,69.6,57.8,30.13,SW,226,0.0,3.0,66,0.00,,---,0.00,VWS V14.01,2013-05-15 13:16:00,
2013-05-15 09:21:00,69.6,57.8,30.13,WNW,298,2.0,7.0,66,0.00,,---,0.00,VWS V14.01,2013-05-15 13:21:00,
2013-05-15 09:26:00,70.4,58.1,30.13,NNW,334,2.0,7.0,65,0.00,,---,0.00,VWS V14.01,2013-05-15 13:26:00,
2013-05-15 09:32:00,71.2,58.8,30.13,SE,146,4.0,6.0,65,0.00,,---,0.00,VWS V14.01,2013-05-15 13:32:00,
2013-05-15 09:37:00,70.7,59.2,30.13,NW,322,2.0,6.0,67,0.00,,---,0.00,VWS V14.01,2013-05-15 13:37:00,
2013-05-15 09:42:00,71.7,59.3,30.13,East,89,0.0,6.0,65,0.00,,---,0.00,VWS V14.01,2013-05-15 13:42:00,
2013-05-15 09:47:00,72.3,60.3,30.13,SW,231,1.0,4.0,66,0.00,,---,0.00,VWS V14.01,2013-05-15 13:47:00,
2013-05-15 09:53:00,72.2,59.4,30.13,WSW,250,3.0,9.0,64,0.00,,---,0.00,VWS V14.01,2013-05-15 13:53:00,
2013-05-15 09:58:00,72.6,58.8,30.13,WSW,242,1.0,9.0,62,0.00,,---,0.00,VWS V14.01,2013-05-15 13:58:00,
2013-05-15 10:04:00,73.2,59.4,30.13,WNW,302,5.0,10.0,62,0.00,,---,0.00,VWS V14.01,2013-05-15 14:04:00,
2013-05-15 10:09:00,74.0,60.2,30.13,NNW,348,0.0,10.0,62,0.00,,---,0.00,VWS V14.01,2013-05-15 14:09:00,
2013-05-15 10:14:00,73.5,59.7,30.13,South,191,3.0,10.0,62,0.00,,---,0.00,VWS V14.01,2013-05-15 14:14:00,
2013-05-15 10:20:00,74.6,59.8,30.13,North,355,3.0,8.0,60,0.00,,---,0.00,VWS V14.01,2013-05-15 14:20:00,
2013-05-15 10:25:00,75.2,60.8,30.13,WNW,287,1.0,8.0,61,0.00,,---,0.00,VWS V14.01,2013-05-15 14:25:00,
2013-05-15 10:30:00,75.7,60.4,30.12,WNW,288,3.0,8.0,59,0.00,,---,0.00,VWS V14.01,2013-05-15 14:30:00,
2013-05-15 10:35:00,75.7,62.2,30.12,SW,230,5.0,5.0,63,0.00,,---,0.00,VWS V14.01,2013-05-15 14:35:00,
2013-05-15 10:41:00,76.0,61.1,30.12,SW,229,0.0,6.0,60,0.00,,---,0.00,VWS V14.01,2013-05-15 14:41:00,
2013-05-15 10:46:00,76.8,61.4,30.12,SSW,205,0.0,4.0,59,0.00,,---,0.00,VWS V14.01,2013-05-15 14:46:00,
2013-05-15 10:51:00,77.2,62.7,30.12,SSW,211,3.0,6.0,61,0.00,,---,0.00,VWS V14.01,2013-05-15 14:51:00,
2013-05-15 10:57:00,77.5,62.5,30.12,WNW,299,4.0,7.0,60,0.00,,---,0.00,VWS V14.01,2013-05-15 14:57:00,
2013-05-15 11:02:00,77.8,61.4,30.12,South,177,1.0,5.0,57,0.00,,---,0.00,VWS V14.01,2013-05-15 15:02:00,
2013-05-15 11:07:00,77.9,61.5,30.12,South,185,3.0,9.0,57,0.00,,---,0.00,VWS V14.01,2013-05-15 15:07:00,
2013-05-15 11:12:00,78.7,62.7,30.12,SSW,203,2.0,9.0,58,0.00,,---,0.00,VWS V14.01,2013-05-15 15:12:00,
2013-05-15 11:18:00,79.5,62.5,30.12,SSE,165,2.0,5.0,56,0.00,,---,0.00,VWS V14.01,2013-05-15 15:18:00,
2013-05-15 11:24:00,78.9,63.8,30.11,SSW,205,5.0,8.0,60,0.00,,---,0.00,VWS V14.01,2013-05-15 15:24:00,
2013-05-15 11:30:00,79.0,63.5,30.11,South,171,3.0,8.0,59,0.00,,---,0.00,VWS V14.01,2013-05-15 15:30:00,
2013-05-15 11:35:00,79.3,63.3,30.11,SW,215,1.0,6.0,58,0.00,,---,0.00,VWS V14.01,2013-05-15 15:35:00,
2013-05-15 11:40:00,79.5,62.5,30.11,South,191,1.0,6.0,56,0.00,,---,0.00,VWS V14.01,2013-05-15 15:40:00,
2013-05-15 11:46:00,79.3,60.7,30.11,South,186,2.0,4.0,53,0.00,,---,0.00,VWS V14.01,2013-05-15 15:46:00,
2013-05-15 11:51:00,79.4,60.8,30.11,WSW,244,2.0,7.0,53,0.00,,---,0.00,VWS V14.01,2013-05-15 15:51:00,
2013-05-15 11:56:00,79.8,63.2,30.11,NW,306,2.0,7.0,57,0.00,,---,0.00,VWS V14.01,2013-05-15 15:56:00,
2013-05-15 12:01:00,81.1,61.3,30.11,South,178,3.0,7.0,51,0.00,,---,0.00,VWS V14.01,2013-05-15 16:01:00,
2013-05-15 12:07:00,81.5,61.7,30.11,SSW,204,2.0,8.0,51,0.00,,---,0.00,VWS V14.01,2013-05-15 16:07:00,
2013-05-15 12:13:00,82.0,62.7,30.10,West,259,2.0,8.0,52,0.00,,---,0.00,VWS V14.01,2013-05-15 16:13:00,
2013-05-15 12:18:00,82.2,63.9,30.10,West,275,2.0,4.0,54,0.00,,---,0.00,VWS V14.01,2013-05-15 16:18:00,
2013-05-15 12:24:00,82.6,65.3,30.10,WSW,250,3.0,5.0,56,0.00,,---,0.00,VWS V14.01,2013-05-15 16:24:00,
2013-05-15 12:29:00,82.7,62.8,30.10,SSE,154,1.0,6.0,51,0.00,,---,0.00,VWS V14.01,2013-05-15 16:29:00,
2013-05-15 12:34:00,81.9,62.0,30.10,WSW,256,2.0,9.0,51,0.00,,---,0.00,VWS V14.01,2013-05-15 16:34:00,
2013-05-15 12:39:00,82.5,62.6,30.09,South,184,0.0,9.0,51,0.00,,---,0.00,VWS V14.01,2013-05-15 16:39:00,
2013-05-15 12:44:00,82.7,62.8,30.09,WSW,254,4.0,9.0,51,0.00,,---,0.00,VWS V14.01,2013-05-15 16:44:00,
2013-05-15 12:49:00,82.7,61.6,30.09,SE,141,3.0,7.0,49,0.00,,---,0.00,VWS V14.01,2013-05-15 16:49:00,
2013-05-15 12:55:00,82.9,60.6,30.09,South,187,2.0,7.0,47,0.00,,---,0.00,VWS V14.01,2013-05-15 16:55:00,
2013-05-15 13:00:00,82.7,62.2,30.08,South,181,2.0,9.0,50,0.00,,---,0.00,VWS V14.01,2013-05-15 17:00:00,
2013-05-15 13:05:00,82.9,62.4,30.08,SSE,158,0.0,7.0,50,0.00,,---,0.00,VWS V14.01,2013-05-15 17:05:00,
2013-05-15 13:12:00,83.7,63.7,30.08,South,189,4.0,7.0,51,0.00,,---,0.00,VWS V14.01,2013-05-15 17:12:00,
2013-05-15 13:17:00,83.9,63.8,30.08,WNW,299,3.0,6.0,51,0.00,,---,0.00,VWS V14.01,2013-05-15 17:17:00,
2013-05-15 13:24:00,84.3,62.5,30.08,SW,226,5.0,7.0,48,0.00,,---,0.00,VWS V14.01,2013-05-15 17:24:00,
2013-05-15 13:29:00,83.9,62.1,30.08,SW,219,1.0,7.0,48,0.00,,---,0.00,VWS V14.01,2013-05-15 17:29:00,
2013-05-15 13:35:00,85.4,66.3,30.07,WNW,297,2.0,5.0,53,0.00,,---,0.00,VWS V14.01,2013-05-15 17:35:00,
2013-05-15 13:41:00,85.7,64.4,30.07,NW,321,2.0,9.0,49,0.00,,---,0.00,VWS V14.01,2013-05-15 17:41:00,
2013-05-15 13:47:00,85.4,61.0,30.07,South,181,0.0,7.0,44,0.00,,---,0.00,VWS V14.01,2013-05-15 17:47:00,
2013-05-15 13:52:00,85.8,63.9,30.06,West,272,3.0,7.0,48,0.00,,---,0.00,VWS V14.01,2013-05-15 17:52:00,
2013-05-15 13:58:00,85.7,62.6,30.06,SSW,202,3.0,7.0,46,0.00,,---,0.00,VWS V14.01,2013-05-15 17:58:00,
2013-05-15 14:03:00,85.5,61.8,30.06,WNW,284,2.0,9.0,45,0.00,,---,0.00,VWS V14.01,2013-05-15 18:03:00,
2013-05-15 14:09:00,85.7,61.3,30.06,NW,325,2.0,9.0,44,0.00,,---,0.00,VWS V14.01,2013-05-15 18:09:00,
2013-05-15 14:15:00,86.5,65.1,30.06,WSW,253,1.0,9.0,49,0.00,,---,0.00,VWS V14.01,2013-05-15 18:15:00,
2013-05-15 14:21:00,86.5,63.9,30.05,WNW,300,2.0,5.0,47,0.00,,---,0.00,VWS V14.01,2013-05-15 18:21:00,
2013-05-15 14:27:00,86.6,64.0,30.05,NW,307,4.0,8.0,47,0.00,,---,0.00,VWS V14.01,2013-05-15 18:27:00,
2013-05-15 14:32:00,86.6,64.0,30.05,NE,53,1.0,4.0,47,0.00,,---,0.00,VWS V14.01,2013-05-15 18:32:00,
2013-05-15 14:37:00,86.3,63.7,30.05,WNW,303,3.0,7.0,47,0.00,,---,0.00,VWS V14.01,2013-05-15 18:37:00,
2013-05-15 14:42:00,86.6,64.6,30.05,SW,234,2.0,7.0,48,0.00,,---,0.00,VWS V14.01,2013-05-15 18:42:00,
2013-05-15 14:48:00,86.8,65.4,30.04,East,89,2.0,5.0,49,0.00,,---,0.00,VWS V14.01,2013-05-15 18:48:00,
2013-05-15 14:54:00,86.8,61.0,30.04,SSW,196,1.0,8.0,42,0.00,,---,0.00,VWS V14.01,2013-05-15 18:54:00,
2013-05-15 15:00:00,86.5,62.0,30.04,SSE,157,0.0,8.0,44,0.00,,---,0.00,VWS V14.01,2013-05-15 19:00:00,
2013-05-15 15:06:00,87.0,64.3,30.04,SSW,211,3.0,7.0,47,0.00,,---,0.00,VWS V14.01,2013-05-15 19:06:00,
2013-05-15 15:11:00,86.7,62.8,30.03,NW,319,1.0,7.0,45,0.00,,---,0.00,VWS V14.01,2013-05-15 19:11:00,
2013-05-15 15:16:00,86.9,63.0,30.03,SW,216,3.0,7.0,45,0.00,,---,0.00,VWS V14.01,2013-05-15 19:16:00,
2013-05-15 15:21:00,87.1,65.1,30.03,ESE,121,0.0,7.0,48,0.00,,---,0.00,VWS V14.01,2013-05-15 19:21:00,
2013-05-15 15:28:00,87.5,64.2,30.03,SSE,160,6.0,8.0,46,0.00,,---,0.00,VWS V14.01,2013-05-15 19:28:00,
2013-05-15 15:33:00,87.5,62.3,30.03,WNW,296,1.0,6.0,43,0.00,,---,0.00,VWS V14.01,2013-05-15 19:33:00,
2013-05-15 15:39:00,87.4,61.5,30.03,SSW,192,2.0,8.0,42,0.00,,---,0.00,VWS V14.01,2013-05-15 19:39:00,
2013-05-15 15:44:00,87.2,62.7,30.02,West,276,3.0,9.0,44,0.00,,---,0.00,VWS V14.01,2013-05-15 19:44:00,
2013-05-15 15:49:00,87.3,62.7,30.02,SW,215,2.0,6.0,44,0.00,,---,0.00,VWS V14.01,2013-05-15 19:49:00,
2013-05-15 15:55:00,87.9,64.6,30.02,WSW,252,1.0,6.0,46,0.00,,---,0.00,VWS V14.01,2013-05-15 19:55:00,
2013-05-15 16:00:00,88.2,63.6,30.02,West,262,0.0,6.0,44,0.00,,---,0.00,VWS V14.01,2013-05-15 20:00:00,
2013-05-15 16:05:00,88.1,64.1,30.02,WSW,246,1.0,8.0,45,0.00,,---,0.00,VWS V14.01,2013-05-15 20:05:00,
2013-05-15 16:11:00,87.6,63.0,30.02,WNW,293,4.0,8.0,44,0.00,,---,0.00,VWS V14.01,2013-05-15 20:11:00,
2013-05-15 16:16:00,87.1,61.2,30.01,SSW,201,5.0,7.0,42,0.00,,---,0.00,VWS V14.01,2013-05-15 20:16:00,
2013-05-15 16:21:00,86.8,62.3,30.01,SSW,195,3.0,10.0,44,0.00,,---,0.00,VWS V14.01,2013-05-15 20:21:00,
2013-05-15 16:26:00,86.9,63.0,30.01,SSW,196,0.0,10.0,45,0.00,,---,0.00,VWS V14.01,2013-05-15 20:26:00,
2013-05-15 16:32:00,87.3,62.1,30.01,South,173,1.0,5.0,43,0.00,,---,0.00,VWS V14.01,2013-05-15 20:32:00,
2013-05-15 16:38:00,87.1,62.6,30.01,WSW,246,1.0,7.0,44,0.00,,---,0.00,VWS V14.01,2013-05-15 20:38:00,
2013-05-15 16:43:00,86.8,61.0,30.01,WNW,290,2.0,7.0,42,0.00,,---,0.00,VWS V14.01,2013-05-15 20:43:00,
2013-05-15 16:48:00,87.2,63.9,30.00,SW,225,3.0,5.0,46,0.00,,---,0.00,VWS V14.01,2013-05-15 20:48:00,
2013-05-15 16:54:00,87.0,61.8,30.00,SSW,200,2.0,7.0,43,0.00,,---,0.00,VWS V14.01,2013-05-15 20:54:00,
2013-05-15 17:00:00,86.8,62.9,30.00,West,271,1.0,9.0,45,0.00,,---,0.00,VWS V14.01,2013-05-15 21:00:00,
2013-05-15 17:05:00,86.9,61.7,30.00,South,181,2.0,6.0,43,0.00,,---,0.00,VWS V14.01,2013-05-15 21:05:00,
2013-05-15 17:10:00,86.8,64.2,30.00,East,98,1.0,7.0,47,0.00,,---,0.00,VWS V14.01,2013-05-15 21:10:00,
2013-05-15 17:16:00,86.6,62.1,29.99,South,171,9.0,11.0,44,0.00,,---,0.00,VWS V14.01,2013-05-15 21:16:00,
2013-05-15 17:21:00,86.5,62.7,29.99,WSW,248,8.0,11.0,45,0.00,,---,0.00,VWS V14.01,2013-05-15 21:21:00,
2013-05-15 17:29:00,86.2,61.8,29.99,West,262,8.0,11.0,44,0.00,,---,0.00,VWS V14.01,2013-05-15 21:29:00,
2013-05-15 17:34:00,86.1,61.7,29.99,South,171,3.0,12.0,44,0.00,,---,0.00,VWS V14.01,2013-05-15 21:34:00,
2013-05-15 17:40:00,86.2,62.4,29.99,SSE,168,2.0,12.0,45,0.00,,---,0.00,VWS V14.01,2013-05-15 21:40:00,
2013-05-15 17:46:00,86.4,62.6,29.99,West,266,6.0,6.0,45,0.00,,---,0.00,VWS V14.01,2013-05-15 21:46:00,
2013-05-15 17:51:00,86.2,62.4,29.99,SSW,192,7.0,9.0,45,0.00,,---,0.00,VWS V14.01,2013-05-15 21:51:00,
2013-05-15 17:57:00,86.1,62.3,29.99,South,184,3.0,9.0,45,0.00,,---,0.00,VWS V14.01,2013-05-15 21:57:00,
2013-05-15 18:03:00,86.0,62.8,29.99,SE,137,1.0,7.0,46,0.00,,---,0.00,VWS V14.01,2013-05-15 22:03:00,
2013-05-15 18:10:00,85.7,61.9,29.99,South,184,2.0,10.0,45,0.00,,---,0.00,VWS V14.01,2013-05-15 22:10:00,
2013-05-15 18:15:00,85.6,63.1,29.98,South,180,1.0,1.0,47,0.00,,---,0.00,VWS V14.01,2013-05-15 22:15:00,
2013-05-15 18:21:00,85.7,63.2,29.98,SSE,159,2.0,5.0,47,0.00,,---,0.00,VWS V14.01,2013-05-15 22:21:00,
2013-05-15 18:26:00,85.7,62.6,29.98,South,179,1.0,7.0,46,0.00,,---,0.00,VWS V14.01,2013-05-15 22:26:00,
2013-05-15 18:32:00,85.6,63.7,29.98,South,178,0.0,5.0,48,0.00,,---,0.00,VWS V14.01,2013-05-15 22:32:00,
2013-05-15 18:38:00,85.4,62.3,29.98,SW,227,4.0,9.0,46,0.00,,---,0.00,VWS V14.01,2013-05-15 22:38:00,
2013-05-15 18:44:00,85.3,62.8,29.98,SW,236,5.0,9.0,47,0.00,,---,0.00,VWS V14.01,2013-05-15 22:44:00,
2013-05-15 18:49:00,85.2,62.7,29.98,South,172,3.0,8.0,47,0.00,,---,0.00,VWS V14.01,2013-05-15 22:49:00,
2013-05-15 18:56:00,85.0,62.5,29.97,South,185,4.0,10.0,47,0.00,,---,0.00,VWS V14.01,2013-05-15 22:56:00,
2013-05-15 19:02:00,84.9,62.4,29.98,SSW,204,1.0,6.0,47,0.00,,---,0.00,VWS V14.01,2013-05-15 23:02:00,
2013-05-15 19:07:00,84.9,63.0,29.98,SW,234,2.0,7.0,48,0.00,,---,0.00,VWS V14.01,2013-05-15 23:07:00,
2013-05-15 19:12:00,84.8,63.5,29.97,SW,230,0.0,7.0,49,0.00,,---,0.00,VWS V14.01,2013-05-15 23:12:00,
2013-05-15 19:18:00,84.6,63.3,29.98,SSW,199,0.0,4.0,49,0.00,,---,0.00,VWS V14.01,2013-05-15 23:18:00,
2013-05-15 19:23:00,84.3,63.1,29.98,WSW,258,1.0,9.0,49,0.00,,---,0.00,VWS V14.01,2013-05-15 23:23:00,
2013-05-15 19:28:00,83.9,62.7,29.98,SW,227,0.0,9.0,49,0.00,,---,0.00,VWS V14.01,2013-05-15 23:28:00,
2013-05-15 19:33:00,83.7,62.5,29.98,South,182,2.0,4.0,49,0.00,,---,0.00,VWS V14.01,2013-05-15 23:33:00,
2013-05-15 19:39:00,83.4,62.3,29.98,SSW,195,0.0,6.0,49,0.00,,---,0.00,VWS V14.01,2013-05-15 23:39:00,
2013-05-15 19:45:00,82.9,62.4,29.98,SSE,167,0.0,6.0,50,0.00,,---,0.00,VWS V14.01,2013-05-15 23:45:00,
2013-05-15 19:50:00,82.7,62.2,29.98,WSW,250,3.0,6.0,50,0.00,,---,0.00,VWS V14.01,2013-05-15 23:50:00,
2013-05-15 19:55:00,82.2,62.3,29.98,SSW,200,1.0,6.0,51,0.00,,---,0.00,VWS V14.01,2013-05-15 23:55:00,
2013-05-15 20:00:00,82.0,62.1,29.98,WSW,250,0.0,1.0,51,0.00,,---,0.00,VWS V14.01,2013-05-16 00:00:00,
2013-05-15 20:06:00,81.4,62.1,29.99,SSW,210,0.0,3.0,52,0.00,,---,0.00,VWS V14.01,2013-05-16 00:06:00,
2013-05-15 20:12:00,81.1,61.8,29.99,SW,217,0.0,4.0,52,0.00,,---,0.00,VWS V14.01,2013-05-16 00:12:00,
2013-05-15 20:18:00,80.7,62.0,29.99,WSW,248,0.0,3.0,53,0.00,,---,0.00,VWS V14.01,2013-05-16 00:18:00,
2013-05-15 20:25:00,80.0,61.9,29.99,WSW,240,0.0,4.0,54,0.00,,---,0.00,VWS V14.01,2013-05-16 00:25:00,
2013-05-15 20:30:00,79.6,62.0,29.99,SSW,208,1.0,4.0,55,0.00,,---,0.00,VWS V14.01,2013-05-16 00:30:00,
2013-05-15 20:35:00,79.4,61.3,29.99,West,263,0.0,4.0,54,0.00,,---,0.00,VWS V14.01,2013-05-16 00:35:00,
2013-05-15 20:40:00,79.4,61.3,29.99,SSW,210,0.0,4.0,54,0.00,,---,0.00,VWS V14.01,2013-05-16 00:40:00,
2013-05-15 20:46:00,79.1,61.6,29.99,SSW,212,0.0,1.0,55,0.00,,---,0.00,VWS V14.01,2013-05-16 00:46:00,
2013-05-15 20:51:00,78.8,61.3,29.99,SSW,212,0.0,1.0,55,0.00,,---,0.00,VWS V14.01,2013-05-16 00:51:00,
2013-05-15 20:56:00,78.4,61.4,29.99,SSW,212,0.0,1.0,56,0.00,,---,0.00,VWS V14.01,2013-05-16 00:56:00,
2013-05-15 21:01:00,78.1,61.6,29.99,SSW,212,0.0,0.0,57,0.00,,---,0.00,VWS V14.01,2013-05-16 01:01:00,
2013-05-15 21:07:00,77.7,61.3,29.99,SSW,212,0.0,0.0,57,0.00,,---,0.00,VWS V14.01,2013-05-16 01:07:00,
2013-05-15 21:12:00,77.4,61.5,30.00,SSW,212,0.0,0.0,58,0.00,,---,0.00,VWS V14.01,2013-05-16 01:12:00,
2013-05-15 21:18:00,76.9,61.5,30.00,SSW,212,0.0,0.0,59,0.00,,---,0.00,VWS V14.01,2013-05-16 01:18:00,
2013-05-15 21:24:00,76.5,61.6,30.00,SW,219,0.0,0.0,60,0.00,,---,0.00,VWS V14.01,2013-05-16 01:24:00,
2013-05-15 21:30:00,76.4,61.5,30.00,WSW,251,0.0,0.0,60,0.00,,---,0.00,VWS V14.01,2013-05-16 01:30:00,
2013-05-15 21:35:00,76.2,61.3,30.00,WSW,256,0.0,0.0,60,0.00,,---,0.00,VWS V14.01,2013-05-16 01:35:00,
2013-05-15 21:41:00,76.0,61.6,30.00,West,280,0.0,0.0,61,0.00,,---,0.00,VWS V14.01,2013-05-16 01:41:00,
2013-05-15 21:48:00,75.8,61.9,30.00,WSW,255,0.0,0.0,62,0.00,,---,0.00,VWS V14.01,2013-05-16 01:48:00,
2013-05-15 21:53:00,75.7,61.8,30.00,WSW,240,0.0,0.0,62,0.00,,---,0.00,VWS V14.01,2013-05-16 01:53:00,
2013-05-15 21:58:00,75.5,61.6,30.01,WSW,240,0.0,0.0,62,0.00,,---,0.00,VWS V14.01,2013-05-16 01:58:00,
2013-05-15 22:03:00,74.8,61.4,30.01,WSW,240,0.0,0.0,63,0.00,,---,0.00,VWS V14.01,2013-05-16 02:03:00,
2013-05-15 22:09:00,74.7,61.7,30.01,WSW,240,0.0,0.0,64,0.00,,---,0.00,VWS V14.01,2013-05-16 02:09:00,
2013-05-15 22:14:00,74.6,61.6,30.00,WSW,240,0.0,0.0,64,0.00,,---,0.00,VWS V14.01,2013-05-16 02:14:00,
2013-05-15 22:19:00,74.3,61.8,30.00,WSW,240,0.0,0.0,65,0.00,,---,0.00,VWS V14.01,2013-05-16 02:19:00,
2013-05-15 22:25:00,74.0,61.5,30.01,WSW,240,0.0,0.0,65,0.00,,---,0.00,VWS V14.01,2013-05-16 02:25:00,
2013-05-15 22:30:00,73.6,61.5,30.01,WSW,240,0.0,0.0,66,0.00,,---,0.00,VWS V14.01,2013-05-16 02:30:00,
2013-05-15 22:37:00,73.4,61.8,30.01,WSW,240,0.0,0.0,67,0.00,,---,0.00,VWS V14.01,2013-05-16 02:37:00,
2013-05-15 22:42:00,73.1,61.5,30.01,WSW,243,0.0,0.0,67,0.00,,---,0.00,VWS V14.01,2013-05-16 02:42:00,
2013-05-15 22:47:00,73.1,61.9,30.01,WSW,243,0.0,0.0,68,0.00,,---,0.00,VWS V14.01,2013-05-16 02:47:00,
2013-05-15 22:53:00,73.0,61.8,30.01,WSW,243,0.0,0.0,68,0.00,,---,0.00,VWS V14.01,2013-05-16 02:53:00,
2013-05-15 22:58:00,73.0,61.8,30.01,SW,234,0.0,0.0,68,0.00,,---,0.00,VWS V14.01,2013-05-16 02:58:00,
2013-05-15 23:04:00,72.9,61.7,30.00,SSW,213,0.0,2.0,68,0.00,,---,0.00,VWS V14.01,2013-05-16 03:04:00,
2013-05-15 23:09:00,73.0,61.8,30.00,SSW,210,0.0,2.0,68,0.00,,---,0.00,VWS V14.01,2013-05-16 03:09:00,
2013-05-15 23:14:00,73.0,61.4,30.00,SW,224,0.0,3.0,67,0.00,,---,0.00,VWS V14.01,2013-05-16 03:14:00,
2013-05-15 23:20:00,73.2,61.6,30.00,South,182,0.0,7.0,67,0.00,,---,0.00,VWS V14.01,2013-05-16 03:20:00,
2013-05-15 23:27:00,73.5,61.5,29.99,SSW,197,1.0,7.0,66,0.00,,---,0.00,VWS V14.01,2013-05-16 03:27:00,
2013-05-15 23:32:00,73.3,61.7,29.99,SSW,200,1.0,6.0,67,0.00,,---,0.00,VWS V14.01,2013-05-16 03:32:00,
2013-05-15 23:38:00,73.2,61.6,29.99,South,183,0.0,6.0,67,0.00,,---,0.00,VWS V14.01,2013-05-16 03:38:00,
2013-05-15 23:43:00,73.0,61.4,29.99,SW,219,2.0,6.0,67,0.00,,---,0.00,VWS V14.01,2013-05-16 03:43:00,
2013-05-15 23:49:00,72.7,61.5,29.99,SW,215,0.0,4.0,68,0.00,,---,0.00,VWS V14.01,2013-05-16 03:49:00,
2013-05-15 23:54:00,72.3,61.6,29.99,SW,215,0.0,4.0,69,0.00,,---,0.00,VWS V14.01,2013-05-16 03:54:00,
2013-05-15 23:59:00,72.0,61.3,30.00,SW,223,0.0,4.0,69,0.00,,---,0.00,VWS V14.01,2013-05-16 03:59:00,